| time (UTC) | temp C | wind direction | speed KPH | gust KPH | rain 1hr cm | rain 24hr cm | rain mn cm | humidity % | barometer mb |
| 20260509155016 | 22 | 293 | 4.8 | 11.3 | 0.00 | 0.00 | 0.00 | 55 | 1011.8 |
| 20260509154016 | 22 | 270 | 4.8 | 16.1 | 0.00 | 0.00 | 0.00 | 56 | 1012.1 |
| 20260509153015 | 22 | 293 | 4.8 | 14.5 | 0.00 | 0.00 | 0.00 | 56 | 1012.3 |
| 20260509152016 | 22 | 90 | 4.8 | 9.7 | 0.00 | 0.00 | 0.00 | 58 | 1012.4 |
| 20260509151016 | 22 | 248 | 3.2 | 12.9 | 0.00 | 0.00 | 0.00 | 60 | 1012.5 |
| 20260509150015 | 21 | 293 | 1.6 | 9.7 | 0.00 | 0.00 | 0.00 | 65 | 1012.5 |
| 20260509145015 | 20 | 293 | 3.2 | 8.0 | 0.00 | 0.00 | 0.00 | 67 | 1012.8 |
| 20260509144015 | 20 | 68 | 1.6 | 4.8 | 0.00 | 0.00 | 0.00 | 69 | 1012.9 |
| 20260509143035 | 20 | 293 | 1.6 | 9.7 | 0.00 | 0.00 | 0.00 | 70 | 1013.2 |
| 20260509142016 | 19 | 270 | 1.6 | 8.0 | 0.00 | 0.00 | 0.00 | 71 | 1013.3 |
| 20260509141015 | 18 | 270 | 1.6 | 9.7 | 0.00 | 0.00 | 0.00 | 71 | 1013.3 |
| 20260509140015 | 18 | 270 | 1.6 | 8.0 | 0.00 | 0.00 | 0.00 | 72 | 1013.3 |
| 20260509135035 | 18 | 270 | 1.6 | 8.0 | 0.00 | 0.00 | 0.00 | 73 | 1013.3 |
| 20260509134015 | 18 | 0 | 1.6 | 8.0 | 0.00 | 0.00 | 0.00 | 74 | 1013.4 |
| 20260509133035 | 17 | 270 | 1.6 | 6.4 | 0.00 | 0.00 | 0.00 | 75 | 1013.6 |
| 20260509132016 | 17 | 293 | 3.2 | 19.3 | 0.00 | 0.00 | 0.00 | 75 | 1013.7 |
| 20260509131016 | 17 | 270 | 1.6 | 6.4 | 0.00 | 0.00 | 0.00 | 76 | 1013.7 |
| 20260509130015 | 17 | 270 | 1.6 | 4.8 | 0.00 | 0.00 | 0.00 | 77 | 1013.6 |
| 20260509125015 | 16 | 270 | 1.6 | 6.4 | 0.00 | 0.00 | 0.00 | 79 | 1013.5 |
| 20260509124016 | 16 | 45 | 1.6 | 8.0 | 0.00 | 0.00 | 0.00 | 80 | 1013.6 |
| 20260509123015 | 15 | 45 | 1.6 | 4.8 | 0.00 | 0.00 | 0.00 | 81 | 1013.6 |
| 20260509122016 | 15 | 270 | 1.6 | 3.2 | 0.00 | 0.00 | 0.00 | 82 | 1013.6 |
| 20260509121015 | 15 | 270 | 1.6 | 12.9 | 0.00 | 0.00 | 0.00 | 82 | 1013.8 |
| 20260509120016 | 14 | 270 | 1.6 | 4.8 | 0.00 | 0.00 | 0.00 | 83 | 1013.7 |
| 20260509115016 | 14 | 293 | 1.6 | 6.4 | 0.00 | 0.00 | 0.00 | 83 | 1013.6 |
| 20260509114016 | 13 | 90 | 1.6 | 9.7 | 0.00 | 0.00 | 0.00 | 83 | 1013.6 |
| 20260509113016 | 13 | 0.0 | 8.0 | 0.00 | 0.00 | 0.00 | 84 | 1013.6 | |
| 20260509112015 | 13 | 0.0 | 4.8 | 0.00 | 0.00 | 0.00 | 86 | 1013.4 | |
| 20260509111016 | 12 | 0.0 | 4.8 | 0.00 | 0.00 | 0.00 | 86 | 1013.5 | |
| 20260509110036 | 12 | 0.0 | 3.2 | 0.00 | 0.00 | 0.00 | 87 | 1013.5 | |
| 20260509105015 | 12 | 0.0 | 1.6 | 0.00 | 0.00 | 0.00 | 87 | 1013.5 | |
| 20260509104035 | 12 | 0.0 | 3.2 | 0.00 | 0.00 | 0.00 | 87 | 1013.4 | |
| 20260509103015 | 12 | 0.0 | 1.6 | 0.00 | 0.00 | 0.00 | 87 | 1013.5 | |
| 20260509102015 | 11 | 0.0 | 0.0 | 0.00 | 0.00 | 0.00 | 87 | 1013.4 | |
| 20260509101015 | 11 | 0.0 | 3.2 | 0.00 | 0.00 | 0.00 | 88 | 1013.5 | |
| 20260509100015 | 11 | 0.0 | 3.2 | 0.00 | 0.00 | 0.00 | 89 | 1013.4 | |
| 20260509095015 | 10 | 0.0 | 0.0 | 0.00 | 0.00 | 0.00 | 91 | 1013.5 | |
| 20260509094016 | 10 | 0.0 | 0.0 | 0.00 | 0.00 | 0.00 | 88 | 1013.6 | |
| 20260509093015 | 10 | 0.0 | 0.0 | 0.00 | 0.00 | 0.00 | 87 | 1013.6 | |
| 20260509092036 | 10 | 0.0 | 3.2 | 0.00 | 0.00 | 0.00 | 89 | 1013.7 | |
| 20260509091015 | 10 | 0.0 | 0.0 | 0.00 | 0.00 | 0.00 | 87 | 1013.6 | |
| 20260509090035 | 10 | 0.0 | 0.0 | 0.00 | 0.00 | 0.00 | 86 | 1013.6 | |
| 20260509085015 | 11 | 0.0 | 0.0 | 0.00 | 0.00 | 0.00 | 85 | 1013.7 | |
| 20260509084016 | 11 | 0.0 | 0.0 | 0.00 | 0.00 | 0.00 | 83 | 1013.6 | |
| 20260509083015 | 12 | 0.0 | 0.0 | 0.00 | 0.00 | 0.00 | 81 | 1013.5 | |
| 20260509082015 | 12 | 0.0 | 1.6 | 0.00 | 0.00 | 0.00 | 81 | 1013.4 | |
| 20260509081035 | 11 | 0.0 | 1.6 | 0.00 | 0.00 | 0.00 | 83 | 1013.4 | |
| 20260509080015 | 11 | 0.0 | 0.0 | 0.00 | 0.00 | 0.00 | 83 | 1013.2 | |
| 20260509075015 | 11 | 0.0 | 0.0 | 0.00 | 0.00 | 0.00 | 82 | 1013.5 | |
| 20260509074015 | 12 | 0.0 | 0.0 | 0.00 | 0.00 | 0.00 | 80 | 1013.6 | |
| 20260509073017 | 12 | 0.0 | 0.0 | 0.00 | 0.00 | 0.00 | 78 | 1013.8 | |
| 20260509072018 | 13 | 0.0 | 1.6 | 0.00 | 0.00 | 0.00 | 76 | 1013.9 | |
| 20260509071018 | 13 | 0.0 | 0.0 | 0.00 | 0.00 | 0.00 | 75 | 1014.0 | |
| 20260509070017 | 13 | 0.0 | 3.2 | 0.00 | 0.00 | 0.00 | 74 | 1014.0 | |
| 20260509065017 | 13 | 0.0 | 4.8 | 0.00 | 0.00 | 0.00 | 74 | 1014.3 | |
| 20260509064017 | 13 | 0.0 | 4.8 | 0.00 | 0.00 | 0.00 | 73 | 1014.4 | |
| 20260509063037 | 13 | 90 | 1.6 | 6.4 | 0.00 | 0.00 | 0.00 | 72 | 1014.7 |
| 20260509062017 | 13 | 0.0 | 3.2 | 0.00 | 0.00 | 0.00 | 72 | 1014.7 | |
| 20260509061057 | 13 | 0.0 | 6.4 | 0.00 | 0.00 | 0.00 | 72 | 1014.7 | |
| 20260509060018 | 13 | 0.0 | 0.0 | 0.00 | 0.00 | 0.00 | 74 | 1014.9 | |
| 20260509055018 | 12 | 0.0 | 3.2 | 0.00 | 0.00 | 0.00 | 74 | 1014.9 | |
| 20260509054017 | 12 | 0.0 | 8.0 | 0.00 | 0.00 | 0.00 | 74 | 1014.9 | |
| 20260509053017 | 11 | 0.0 | 3.2 | 0.00 | 0.00 | 0.00 | 77 | 1014.7 | |
| 20260509052037 | 11 | 0.0 | 0.0 | 0.00 | 0.00 | 0.00 | 78 | 1014.6 | |
| 20260509051017 | 11 | 0.0 | 0.0 | 0.00 | 0.00 | 0.00 | 78 | 1014.5 | |
| 20260509050037 | 11 | 0.0 | 0.0 | 0.00 | 0.00 | 0.00 | 77 | 1014.5 | |
| 20260509045017 | 12 | 0.0 | 0.0 | 0.00 | 0.00 | 0.00 | 75 | 1014.3 | |
| 20260509044017 | 12 | 0.0 | 0.0 | 0.00 | 0.00 | 0.00 | 73 | 1014.4 | |
| 20260509043057 | 12 | 0.0 | 0.0 | 0.00 | 0.00 | 0.00 | 73 | 1014.4 | |
| 20260509042017 | 13 | 0.0 | 0.0 | 0.00 | 0.00 | 0.00 | 70 | 1014.5 | |
| 20260509041017 | 13 | 0.0 | 0.0 | 0.00 | 0.00 | 0.00 | 68 | 1014.5 | |
| 20260509040057 | 14 | 0.0 | 0.0 | 0.00 | 0.00 | 0.00 | 64 | 1014.5 | |
| 20260509035017 | 15 | 0.0 | 1.6 | 0.00 | 0.00 | 0.00 | 61 | 1014.6 | |
| 20260509034016 | 16 | 0.0 | 1.6 | 0.00 | 0.00 | 0.00 | 59 | 1014.8 | |
| 20260509033017 | 16 | 0.0 | 3.2 | 0.00 | 0.00 | 0.00 | 57 | 1014.7 | |
| 20260509032036 | 16 | 0.0 | 0.0 | 0.00 | 0.00 | 0.00 | 56 | 1015.0 | |
| 20260509031017 | 16 | 0.0 | 3.2 | 0.00 | 0.00 | 0.00 | 55 | 1014.9 | |
| 20260509030016 | 16 | 0.0 | 3.2 | 0.00 | 0.00 | 0.00 | 55 | 1014.8 | |
| 20260509025016 | 16 | 0.0 | 3.2 | 0.00 | 0.00 | 0.00 | 53 | 1014.9 | |
| 20260509024017 | 16 | 0.0 | 4.8 | 0.00 | 0.00 | 0.00 | 53 | 1014.9 | |
| 20260509023016 | 16 | 0.0 | 3.2 | 0.00 | 0.00 | 0.00 | 52 | 1014.9 | |
| 20260509022017 | 16 | 0.0 | 4.8 | 0.00 | 0.00 | 0.00 | 51 | 1014.8 | |
| 20260509021016 | 16 | 0.0 | 3.2 | 0.00 | 0.00 | 0.00 | 51 | 1014.9 | |
| 20260509020016 | 17 | 0.0 | 3.2 | 0.00 | 0.00 | 0.00 | 50 | 1014.7 | |
| 20260509015016 | 17 | 0.0 | 1.6 | 0.00 | 0.00 | 0.00 | 49 | 1014.6 | |
| 20260509014016 | 17 | 0.0 | 3.2 | 0.00 | 0.00 | 0.00 | 49 | 1014.6 | |
| 20260509013036 | 17 | 0.0 | 3.2 | 0.00 | 0.00 | 0.00 | 48 | 1014.4 | |
| 20260509012057 | 17 | 0.0 | 1.6 | 0.00 | 0.00 | 0.00 | 50 | 1014.4 | |
| 20260509011016 | 17 | 0.0 | 3.2 | 0.00 | 0.00 | 0.00 | 47 | 1014.3 | |
| 20260509010016 | 18 | 0.0 | 3.2 | 0.00 | 0.00 | 0.00 | 46 | 1014.2 | |
| 20260509005016 | 18 | 0.0 | 4.8 | 0.00 | 0.00 | 0.00 | 46 | 1014.2 | |
| 20260509004017 | 18 | 0.0 | 0.0 | 0.00 | 0.00 | 0.00 | 45 | 1014.3 | |
| 20260509003016 | 18 | 0.0 | 4.8 | 0.00 | 0.00 | 0.00 | 44 | 1014.2 | |
| 20260509002017 | 19 | 0.0 | 3.2 | 0.00 | 0.00 | 0.00 | 44 | 1014.1 | |
| 20260509001016 | 19 | 0.0 | 4.8 | 0.00 | 0.00 | 0.00 | 44 | 1014.1 | |
| 20260509000016 | 20 | 293 | 1.6 | 8.0 | 0.00 | 0.00 | 0.00 | 43 | 1014.0 |
| 20260508235016 | 20 | 0.0 | 3.2 | 0.00 | 0.00 | 0.00 | 43 | 1013.9 | |
| 20260508234016 | 20 | 270 | 1.6 | 8.0 | 0.00 | 0.00 | 0.00 | 41 | 1013.7 |
| 20260508233016 | 21 | 293 | 1.6 | 9.7 | 0.00 | 0.00 | 0.00 | 40 | 1013.6 |
| 20260508232016 | 21 | 270 | 1.6 | 6.4 | 0.00 | 0.00 | 0.00 | 39 | 1013.5 |
| 20260508231016 | 21 | 68 | 1.6 | 9.7 | 0.00 | 0.00 | 0.00 | 38 | 1013.5 |
| 20260508230016 | 21 | 68 | 1.6 | 6.4 | 0.00 | 0.00 | 0.00 | 38 | 1013.5 |
| 20260508225016 | 21 | 293 | 1.6 | 4.8 | 0.00 | 0.00 | 0.00 | 38 | 1013.5 |
| 20260508224036 | 22 | 68 | 3.2 | 8.0 | 0.00 | 0.00 | 0.00 | 37 | 1013.5 |
| 20260508223016 | 22 | 270 | 1.6 | 6.4 | 0.00 | 0.00 | 0.00 | 37 | 1013.5 |
| 20260508222016 | 22 | 293 | 3.2 | 11.3 | 0.00 | 0.00 | 0.00 | 37 | 1013.6 |
| 20260508221016 | 22 | 293 | 1.6 | 4.8 | 0.00 | 0.00 | 0.00 | 37 | 1013.7 |
| 20260508220017 | 22 | 293 | 3.2 | 12.9 | 0.00 | 0.00 | 0.00 | 36 | 1013.8 |
| 20260508215016 | 23 | 293 | 3.2 | 14.5 | 0.00 | 0.00 | 0.00 | 35 | 1013.8 |
| 20260508214056 | 23 | 270 | 3.2 | 11.3 | 0.00 | 0.00 | 0.00 | 35 | 1013.8 |
| 20260508213016 | 23 | 270 | 1.6 | 8.0 | 0.00 | 0.00 | 0.00 | 36 | 1013.8 |
| 20260508212016 | 23 | 270 | 4.8 | 14.5 | 0.00 | 0.00 | 0.00 | 35 | 1013.7 |
| 20260508211016 | 23 | 270 | 3.2 | 11.3 | 0.00 | 0.00 | 0.00 | 36 | 1013.8 |
| 20260508210016 | 23 | 90 | 1.6 | 6.4 | 0.00 | 0.00 | 0.00 | 35 | 1013.9 |
| 20260508205016 | 23 | 270 | 3.2 | 8.0 | 0.00 | 0.00 | 0.00 | 35 | 1013.9 |
| 20260508204057 | 23 | 315 | 3.2 | 9.7 | 0.00 | 0.00 | 0.00 | 36 | 1013.9 |
| 20260508203016 | 23 | 270 | 3.2 | 11.3 | 0.00 | 0.03 | 0.00 | 36 | 1014.1 |
| 20260508202016 | 23 | 68 | 3.2 | 8.0 | 0.00 | 0.05 | 0.00 | 35 | 1014.2 |
| 20260508201016 | 22 | 293 | 3.2 | 11.3 | 0.00 | 0.05 | 0.00 | 35 | 1014.2 |
| 20260508200016 | 23 | 270 | 3.2 | 17.7 | 0.00 | 0.08 | 0.00 | 37 | 1014.4 |
| 20260508195036 | 22 | 270 | 3.2 | 11.3 | 0.00 | 0.15 | 0.00 | 36 | 1014.5 |
| 20260508194016 | 22 | 225 | 1.6 | 6.4 | 0.00 | 0.15 | 0.00 | 38 | 1014.6 |
| 20260508193137 | 22 | 270 | 3.2 | 8.0 | 0.00 | 0.15 | 0.00 | 38 | 1014.8 |
| 20260508192016 | 22 | 270 | 3.2 | 11.3 | 0.00 | 0.18 | 0.00 | 38 | 1015.0 |
| 20260508191016 | 22 | 68 | 1.6 | 8.0 | 0.00 | 0.18 | 0.00 | 38 | 1015.2 |
| 20260508190016 | 22 | 90 | 3.2 | 9.7 | 0.00 | 0.18 | 0.00 | 38 | 1015.2 |
| 20260508185016 | 22 | 270 | 1.6 | 8.0 | 0.00 | 0.18 | 0.00 | 38 | 1015.3 |
| 20260508184016 | 22 | 293 | 4.8 | 12.9 | 0.00 | 0.18 | 0.00 | 39 | 1015.4 |
| 20260508183016 | 22 | 90 | 1.6 | 4.8 | 0.00 | 0.18 | 0.00 | 40 | 1015.6 |
| 20260508182016 | 22 | 270 | 3.2 | 9.7 | 0.00 | 0.18 | 0.00 | 38 | 1015.7 |
| 20260508181036 | 22 | 270 | 1.6 | 8.0 | 0.00 | 0.18 | 0.00 | 39 | 1015.9 |
| 20260508180016 | 22 | 90 | 1.6 | 3.2 | 0.00 | 0.18 | 0.00 | 38 | 1016.0 |